Terug naar catalogus

BRO-13

ActiefWetenschapSSO
NORAD 59107·PAYLOAD·🇫🇷 France

Gelanceerd Mar 4, 2024 vanaf Vandenberg Space Force Base

Loading…

Volgende Passages (komende 24 uur)

TLE

VersSource: Space-Track

Epoch: Sep 14, 2026, 14:41 UTC

1 59107U 24043K   26257.61224919  .00000280  00000-0  29661-4 0  9999
2 59107  97.8614  28.9829 0010129  63.7116 296.5145 14.96768445137999

Volg BRO-13 in realtime met AllMySat

Download on the App Store